owner,sensor,date,latitude,longitude,mass_concentration_of_chlorophyll_in_sea_water,qcFlag 
SCCF RECON,ioos:station:SCCF:11:1,2012-10-01T00:00:00Z,26.4679,-82.0631,11.31,1111122 
SCCF RECON,ioos:station:SCCF:11:1,2012-10-01T01:00:00Z,26.4679,-82.0631,11.59,1111122 
SCCF RECON,ioos:station:SCCF:11:1,2012-10-01T02:00:00Z,26.4679,-82.0631,9.47,1111122 
SCCF RECON,ioos:station:SCCF:11:1,2012-10-01T03:00:00Z,26.4679,-82.0631,9.04,1111122 
SCCF RECON,ioos:station:SCCF:11:1,2012-10-01T04:00:00Z,26.4679,-82.0631,8.65,1111122 
SCCF RECON,ioos:station:SCCF:11:1,2012-10-01T05:00:00Z,26.4679,-82.0631,8.64,1111122 
SCCF RECON,ioos:station:SCCF:11:1,2012-10-01T06:00:00Z,26.4679,-82.0631,6.79,1111122 
SCCF RECON,ioos:station:SCCF:11:1,2012-10-01T07:00:00Z,26.4679,-82.0631,6.38,1111122 
SCCF RECON,ioos:station:SCCF:11:1,2012-10-01T08:00:00Z,26.4679,-82.0631,7.62,1111122 
SCCF RECON,ioos:station:SCCF:11:1,2012-10-01T09:00:00Z,26.4679,-82.0631,8.06,1111122 
SCCF RECON,ioos:station:SCCF:11:1,2012-10-01T10:00:00Z,26.4679,-82.0631,7.44,1111122 
SCCF RECON,ioos:station:SCCF:11:1,2012-10-01T11:00:00Z,26.4679,-82.0631,7.12,1111122 
SCCF RECON,ioos:station:SCCF:11:1,2012-10-01T12:00:00Z,26.4679,-82.0631,7.31,1111122 
SCCF RECON,ioos:station:SCCF:11:1,2012-10-01T13:00:00Z,26.4679,-82.0631,8.73,1111122 
SCCF RECON,ioos:station:SCCF:11:1,2012-10-01T14:00:00Z,26.4679,-82.0631,6.32,1111122 
SCCF RECON,ioos:station:SCCF:11:1,2012-10-01T15:00:00Z,26.4679,-82.0631,7.44,1111122 
SCCF RECON,ioos:station:SCCF:11:1,2012-10-01T16:00:00Z,26.4679,-82.0631,7.53,1111122 
SCCF RECON,ioos:station:SCCF:11:1,2012-10-01T17:00:00Z,26.4679,-82.0631,7.17,1111122 
SCCF RECON,ioos:station:SCCF:11:1,2012-10-01T18:00:00Z,26.4679,-82.0631,5.95,1111122 
SCCF RECON,ioos:station:SCCF:11:1,2012-10-01T19:00:00Z,26.4679,-82.0631,6.09,1111122 
SCCF RECON,ioos:station:SCCF:11:1,2012-10-01T20:00:00Z,26.4679,-82.0631,4.16,1111122 
SCCF RECON,ioos:station:SCCF:11:1,2012-10-01T21:00:00Z,26.4679,-82.0631,8.37,1111122 
SCCF RECON,ioos:station:SCCF:11:1,2012-10-01T22:00:00Z,26.4679,-82.0631,5.0,1111122 
SCCF RECON,ioos:station:SCCF:11:1,2012-10-01T23:00:00Z,26.4679,-82.0631,3.47,1111122 
SCCF RECON,ioos:station:SCCF:11:1,2012-10-02T00:00:00Z,26.4679,-82.0631,6.94,1111122 
SCCF RECON,ioos:station:SCCF:11:1,2012-10-02T01:00:00Z,26.4679,-82.0631,5.82,1111122 
SCCF RECON,ioos:station:SCCF:11:1,2012-10-02T02:00:00Z,26.4679,-82.0631,5.5,1111122 
SCCF RECON,ioos:station:SCCF:11:1,2012-10-02T03:00:00Z,26.4679,-82.0631,5.19,1111122 
SCCF RECON,ioos:station:SCCF:11:1,2012-10-02T04:00:00Z,26.4679,-82.0631,3.91,1111122 
SCCF RECON,ioos:station:SCCF:11:1,2012-10-02T05:00:00Z,26.4679,-82.0631,4.59,1111122 
SCCF RECON,ioos:station:SCCF:11:1,2012-10-02T06:00:00Z,26.4679,-82.0631,4.18,1111122 
SCCF RECON,ioos:station:SCCF:11:1,2012-10-02T07:00:00Z,26.4679,-82.0631,3.3,1111122 
SCCF RECON,ioos:station:SCCF:11:1,2012-10-02T08:00:00Z,26.4679,-82.0631,2.74,1111122 
SCCF RECON,ioos:station:SCCF:11:1,2012-10-02T09:00:00Z,26.4679,-82.0631,3.89,1111122 
SCCF RECON,ioos:station:SCCF:11:1,2012-10-02T10:00:00Z,26.4679,-82.0631,5.08,1111122 
SCCF RECON,ioos:station:SCCF:11:1,2012-10-02T11:00:00Z,26.4679,-82.0631,4.64,1111122 
SCCF RECON,ioos:station:SCCF:11:1,2012-10-02T12:00:00Z,26.4679,-82.0631,5.09,1111122 
SCCF RECON,ioos:station:SCCF:11:1,2012-10-02T13:00:00Z,26.4679,-82.0631,5.1,1111122 
SCCF RECON,ioos:station:SCCF:11:1,2012-10-02T14:00:00Z,26.4679,-82.0631,4.99,1111122 
SCCF RECON,ioos:station:SCCF:11:1,2012-10-02T15:00:00Z,26.4679,-82.0631,4.55,1111122 
SCCF RECON,ioos:station:SCCF:11:1,2012-10-02T16:00:00Z,26.4679,-82.0631,4.54,1111122 
SCCF RECON,ioos:station:SCCF:11:1,2012-10-02T17:00:00Z,26.4679,-82.0631,4.57,1111122 
SCCF RECON,ioos:station:SCCF:11:1,2012-10-02T18:00:00Z,26.4679,-82.0631,4.54,1111122 
SCCF RECON,ioos:station:SCCF:11:1,2012-10-02T19:00:00Z,26.4679,-82.0631,4.73,1111122 
SCCF RECON,ioos:station:SCCF:11:1,2012-10-02T20:00:00Z,26.4679,-82.0631,4.68,1111122 
SCCF RECON,ioos:station:SCCF:11:1,2012-10-02T21:00:00Z,26.4679,-82.0631,4.96,1111122 
SCCF RECON,ioos:station:SCCF:11:1,2012-10-02T22:00:00Z,26.4679,-82.0631,4.76,1111122 
SCCF RECON,ioos:station:SCCF:11:1,2012-10-02T23:00:00Z,26.4679,-82.0631,6.35,1111122 
SCCF RECON,ioos:station:SCCF:11:1,2012-10-03T00:00:00Z,26.4679,-82.0631,5.57,1111122 
SCCF RECON,ioos:station:SCCF:11:1,2012-10-03T01:00:00Z,26.4679,-82.0631,5.23,1111122 
SCCF RECON,ioos:station:SCCF:11:1,2012-10-03T02:00:00Z,26.4679,-82.0631,4.34,1111122 
SCCF RECON,ioos:station:SCCF:11:1,2012-10-03T03:00:00Z,26.4679,-82.0631,4.05,1111122 
SCCF RECON,ioos:station:SCCF:11:1,2012-10-03T04:00:00Z,26.4679,-82.0631,3.91,1111122 
SCCF RECON,ioos:station:SCCF:11:1,2012-10-03T05:00:00Z,26.4679,-82.0631,4.32,1111122 
SCCF RECON,ioos:station:SCCF:11:1,2012-10-03T06:00:00Z,26.4679,-82.0631,4.06,1111122 
SCCF RECON,ioos:station:SCCF:11:1,2012-10-03T07:00:00Z,26.4679,-82.0631,4.06,1111122 
SCCF RECON,ioos:station:SCCF:11:1,2012-10-03T08:00:00Z,26.4679,-82.0631,3.8,1111122 
SCCF RECON,ioos:station:SCCF:11:1,2012-10-03T09:00:00Z,26.4679,-82.0631,3.92,1111122 
SCCF RECON,ioos:station:SCCF:11:1,2012-10-03T10:00:00Z,26.4679,-82.0631,3.7,1111122 
SCCF RECON,ioos:station:SCCF:11:1,2012-10-03T11:00:00Z,26.4679,-82.0631,3.59,1111122 
SCCF RECON,ioos:station:SCCF:11:1,2012-10-03T12:00:00Z,26.4679,-82.0631,3.67,1111122 
SCCF RECON,ioos:station:SCCF:11:1,2012-10-03T13:00:00Z,26.4679,-82.0631,3.5,1111122 
SCCF RECON,ioos:station:SCCF:11:1,2012-10-03T14:00:00Z,26.4679,-82.0631,4.01,1111122 
SCCF RECON,ioos:station:SCCF:11:1,2012-10-03T15:00:00Z,26.4679,-82.0631,4.0,1111122 
SCCF RECON,ioos:station:SCCF:11:1,2012-10-03T16:00:00Z,26.4679,-82.0631,4.18,1111122 
SCCF RECON,ioos:station:SCCF:11:1,2012-10-03T17:00:00Z,26.4679,-82.0631,5.15,1111122 
SCCF RECON,ioos:station:SCCF:11:1,2012-10-03T18:00:00Z,26.4679,-82.0631,5.3,1111122 
SCCF RECON,ioos:station:SCCF:11:1,2012-10-03T19:00:00Z,26.4679,-82.0631,5.75,1111122 
SCCF RECON,ioos:station:SCCF:11:1,2012-10-03T20:00:00Z,26.4679,-82.0631,5.12,1111122 
SCCF RECON,ioos:station:SCCF:11:1,2012-10-03T21:00:00Z,26.4679,-82.0631,5.1,1111122 
SCCF RECON,ioos:station:SCCF:11:1,2012-10-03T22:00:00Z,26.4679,-82.0631,5.5,1111122 
SCCF RECON,ioos:station:SCCF:11:1,2012-10-03T23:00:00Z,26.4679,-82.0631,7.04,1111122 
SCCF RECON,ioos:station:SCCF:11:1,2012-10-04T00:00:00Z,26.4679,-82.0631,6.65,1111122 
SCCF RECON,ioos:station:SCCF:11:1,2012-10-04T01:00:00Z,26.4679,-82.0631,6.03,1111122 
SCCF RECON,ioos:station:SCCF:11:1,2012-10-04T02:00:00Z,26.4679,-82.0631,6.25,1111122 
SCCF RECON,ioos:station:SCCF:11:1,2012-10-04T03:00:00Z,26.4679,-82.0631,5.55,1111122 
SCCF RECON,ioos:station:SCCF:11:1,2012-10-04T04:00:00Z,26.4679,-82.0631,5.15,1111122 
SCCF RECON,ioos:station:SCCF:11:1,2012-10-04T05:00:00Z,26.4679,-82.0631,5.45,1111122 
SCCF RECON,ioos:station:SCCF:11:1,2012-10-04T06:00:00Z,26.4679,-82.0631,5.08,1111122 
SCCF RECON,ioos:station:SCCF:11:1,2012-10-04T07:00:00Z,26.4679,-82.0631,5.07,1111122 
SCCF RECON,ioos:station:SCCF:11:1,2012-10-04T08:00:00Z,26.4679,-82.0631,5.34,1111122 
SCCF RECON,ioos:station:SCCF:11:1,2012-10-04T09:00:00Z,26.4679,-82.0631,4.67,1111122 
SCCF RECON,ioos:station:SCCF:11:1,2012-10-04T10:00:00Z,26.4679,-82.0631,4.51,1111122 
SCCF RECON,ioos:station:SCCF:11:1,2012-10-04T11:00:00Z,26.4679,-82.0631,4.35,1111122 
SCCF RECON,ioos:station:SCCF:11:1,2012-10-04T12:00:00Z,26.4679,-82.0631,4.25,1111122 
SCCF RECON,ioos:station:SCCF:11:1,2012-10-04T13:00:00Z,26.4679,-82.0631,4.0,1111122 
SCCF RECON,ioos:station:SCCF:11:1,2012-10-04T14:00:00Z,26.4679,-82.0631,4.0,1111122 
SCCF RECON,ioos:station:SCCF:11:1,2012-10-04T15:00:00Z,26.4679,-82.0631,4.45,1111122 
SCCF RECON,ioos:station:SCCF:11:1,2012-10-04T16:00:00Z,26.4679,-82.0631,4.09,1111122 
SCCF RECON,ioos:station:SCCF:11:1,2012-10-04T17:00:00Z,26.4679,-82.0631,5.7,1111122 
SCCF RECON,ioos:station:SCCF:11:1,2012-10-04T18:00:00Z,26.4679,-82.0631,6.91,1111122 
SCCF RECON,ioos:station:SCCF:11:1,2012-10-04T19:00:00Z,26.4679,-82.0631,6.18,1111122 
SCCF RECON,ioos:station:SCCF:11:1,2012-10-04T20:00:00Z,26.4679,-82.0631,6.09,1111122 
SCCF RECON,ioos:station:SCCF:11:1,2012-10-04T21:00:00Z,26.4679,-82.0631,5.69,1111122 
SCCF RECON,ioos:station:SCCF:11:1,2012-10-04T22:00:00Z,26.4679,-82.0631,6.26,1111122 
SCCF RECON,ioos:station:SCCF:11:1,2012-10-04T23:00:00Z,26.4679,-82.0631,8.79,1111122 
SCCF RECON,ioos:station:SCCF:11:1,2012-10-05T00:00:00Z,26.4679,-82.0631,7.92,1111122 
SCCF RECON,ioos:station:SCCF:11:1,2012-10-05T01:00:00Z,26.4679,-82.0631,6.48,1111122 
SCCF RECON,ioos:station:SCCF:11:1,2012-10-05T02:00:00Z,26.4679,-82.0631,6.65,1111122 
SCCF RECON,ioos:station:SCCF:11:1,2012-10-05T03:00:00Z,26.4679,-82.0631,7.04,1111122 
SCCF RECON,ioos:station:SCCF:11:1,2012-10-05T04:00:00Z,26.4679,-82.0631,6.57,1111122 
SCCF RECON,ioos:station:SCCF:11:1,2012-10-05T05:00:00Z,26.4679,-82.0631,5.07,1111122 
SCCF RECON,ioos:station:SCCF:11:1,2012-10-05T06:00:00Z,26.4679,-82.0631,5.24,1111122 
SCCF RECON,ioos:station:SCCF:11:1,2012-10-05T07:00:00Z,26.4679,-82.0631,5.27,1111122 
SCCF RECON,ioos:station:SCCF:11:1,2012-10-05T08:00:00Z,26.4679,-82.0631,4.92,1111122 
SCCF RECON,ioos:station:SCCF:11:1,2012-10-05T09:00:00Z,26.4679,-82.0631,5.24,1111122 
SCCF RECON,ioos:station:SCCF:11:1,2012-10-05T10:00:00Z,26.4679,-82.0631,5.16,1111122 
SCCF RECON,ioos:station:SCCF:11:1,2012-10-05T11:00:00Z,26.4679,-82.0631,5.52,1111122 
SCCF RECON,ioos:station:SCCF:11:1,2012-10-05T12:00:00Z,26.4679,-82.0631,5.33,1111122 
SCCF RECON,ioos:station:SCCF:11:1,2012-10-05T13:00:00Z,26.4679,-82.0631,6.62,1111122 
SCCF RECON,ioos:station:SCCF:11:1,2012-10-05T14:00:00Z,26.4679,-82.0631,5.35,1111122 
SCCF RECON,ioos:station:SCCF:11:1,2012-10-05T15:00:00Z,26.4679,-82.0631,6.23,1111122 
SCCF RECON,ioos:station:SCCF:11:1,2012-10-05T16:00:00Z,26.4679,-82.0631,5.8,1111122 
SCCF RECON,ioos:station:SCCF:11:1,2012-10-05T17:00:00Z,26.4679,-82.0631,5.69,1111122 
SCCF RECON,ioos:station:SCCF:11:1,2012-10-05T18:00:00Z,26.4679,-82.0631,6.6,1111122 
SCCF RECON,ioos:station:SCCF:11:1,2012-10-05T19:00:00Z,26.4679,-82.0631,7.17,1111122 
SCCF RECON,ioos:station:SCCF:11:1,2012-10-05T20:00:00Z,26.4679,-82.0631,6.99,1111122 
SCCF RECON,ioos:station:SCCF:11:1,2012-10-05T21:00:00Z,26.4679,-82.0631,6.38,1111122 
SCCF RECON,ioos:station:SCCF:11:1,2012-10-05T22:00:00Z,26.4679,-82.0631,6.88,1111122 
SCCF RECON,ioos:station:SCCF:11:1,2012-10-05T23:00:00Z,26.4679,-82.0631,10.76,1111122 
SCCF RECON,ioos:station:SCCF:11:1,2012-10-06T00:00:00Z,26.4679,-82.0631,8.41,1111122 
SCCF RECON,ioos:station:SCCF:11:1,2012-10-06T01:00:00Z,26.4679,-82.0631,9.38,1111122 
SCCF RECON,ioos:station:SCCF:11:1,2012-10-06T02:00:00Z,26.4679,-82.0631,8.93,1111122 
SCCF RECON,ioos:station:SCCF:11:1,2012-10-06T03:00:00Z,26.4679,-82.0631,8.44,1111122 
SCCF RECON,ioos:station:SCCF:11:1,2012-10-06T04:00:00Z,26.4679,-82.0631,8.34,1111122 
SCCF RECON,ioos:station:SCCF:11:1,2012-10-06T05:00:00Z,26.4679,-82.0631,8.17,1111122 
SCCF RECON,ioos:station:SCCF:11:1,2012-10-06T06:00:00Z,26.4679,-82.0631,7.51,1111122 
SCCF RECON,ioos:station:SCCF:11:1,2012-10-06T07:00:00Z,26.4679,-82.0631,6.89,1111122 
SCCF RECON,ioos:station:SCCF:11:1,2012-10-06T08:00:00Z,26.4679,-82.0631,6.27,1111122 
SCCF RECON,ioos:station:SCCF:11:1,2012-10-06T09:00:00Z,26.4679,-82.0631,4.83,1111122 
SCCF RECON,ioos:station:SCCF:11:1,2012-10-06T10:00:00Z,26.4679,-82.0631,5.82,1111122 
SCCF RECON,ioos:station:SCCF:11:1,2012-10-06T11:00:00Z,26.4679,-82.0631,6.3,1111122 
SCCF RECON,ioos:station:SCCF:11:1,2012-10-06T12:00:00Z,26.4679,-82.0631,6.56,1111122 
SCCF RECON,ioos:station:SCCF:11:1,2012-10-06T13:00:00Z,26.4679,-82.0631,6.16,1111122 
SCCF RECON,ioos:station:SCCF:11:1,2012-10-06T14:00:00Z,26.4679,-82.0631,6.96,1111122 
SCCF RECON,ioos:station:SCCF:11:1,2012-10-06T15:00:00Z,26.4679,-82.0631,6.8,1111122 
SCCF RECON,ioos:station:SCCF:11:1,2012-10-06T16:00:00Z,26.4679,-82.0631,6.38,1111122 
SCCF RECON,ioos:station:SCCF:11:1,2012-10-06T17:00:00Z,26.4679,-82.0631,6.65,1111122 
SCCF RECON,ioos:station:SCCF:11:1,2012-10-06T18:00:00Z,26.4679,-82.0631,7.85,1111122 
SCCF RECON,ioos:station:SCCF:11:1,2012-10-06T19:00:00Z,26.4679,-82.0631,6.69,1111122 
SCCF RECON,ioos:station:SCCF:11:1,2012-10-06T20:00:00Z,26.4679,-82.0631,6.64,1111122 
SCCF RECON,ioos:station:SCCF:11:1,2012-10-06T21:00:00Z,26.4679,-82.0631,6.12,1111122 
SCCF RECON,ioos:station:SCCF:11:1,2012-10-06T22:00:00Z,26.4679,-82.0631,6.21,1111122 
SCCF RECON,ioos:station:SCCF:11:1,2012-10-06T23:00:00Z,26.4679,-82.0631,6.64,1111122 
SCCF RECON,ioos:station:SCCF:11:1,2012-10-07T00:00:00Z,26.4679,-82.0631,5.65,1111122 
SCCF RECON,ioos:station:SCCF:11:1,2012-10-07T01:00:00Z,26.4679,-82.0631,4.64,1111122 
SCCF RECON,ioos:station:SCCF:11:1,2012-10-07T02:00:00Z,26.4679,-82.0631,4.78,1111122 
SCCF RECON,ioos:station:SCCF:11:1,2012-10-07T03:00:00Z,26.4679,-82.0631,5.95,1111122 
SCCF RECON,ioos:station:SCCF:11:1,2012-10-07T04:00:00Z,26.4679,-82.0631,5.85,1111122 
SCCF RECON,ioos:station:SCCF:11:1,2012-10-07T05:00:00Z,26.4679,-82.0631,5.45,1111122 
SCCF RECON,ioos:station:SCCF:11:1,2012-10-07T06:00:00Z,26.4679,-82.0631,5.2,1111122 
SCCF RECON,ioos:station:SCCF:11:1,2012-10-07T07:00:00Z,26.4679,-82.0631,5.25,1111122 
SCCF RECON,ioos:station:SCCF:11:1,2012-10-07T08:00:00Z,26.4679,-82.0631,3.36,1111122 
SCCF RECON,ioos:station:SCCF:11:1,2012-10-07T09:00:00Z,26.4679,-82.0631,4.75,1111122 
SCCF RECON,ioos:station:SCCF:11:1,2012-10-07T10:00:00Z,26.4679,-82.0631,3.42,1111122 
SCCF RECON,ioos:station:SCCF:11:1,2012-10-07T11:00:00Z,26.4679,-82.0631,3.85,1111122 
SCCF RECON,ioos:station:SCCF:11:1,2012-10-07T12:00:00Z,26.4679,-82.0631,4.72,1111122 
SCCF RECON,ioos:station:SCCF:11:1,2012-10-07T13:00:00Z,26.4679,-82.0631,4.91,1111122 
SCCF RECON,ioos:station:SCCF:11:1,2012-10-07T14:00:00Z,26.4679,-82.0631,6.04,1111122 
SCCF RECON,ioos:station:SCCF:11:1,2012-10-07T15:00:00Z,26.4679,-82.0631,5.08,1111122 
SCCF RECON,ioos:station:SCCF:11:1,2012-10-07T16:00:00Z,26.4679,-82.0631,6.61,1111122 
SCCF RECON,ioos:station:SCCF:11:1,2012-10-07T17:00:00Z,26.4679,-82.0631,7.2,1111122 
SCCF RECON,ioos:station:SCCF:11:1,2012-10-07T18:00:00Z,26.4679,-82.0631,8.06,1111122 
SCCF RECON,ioos:station:SCCF:11:1,2012-10-07T19:00:00Z,26.4679,-82.0631,6.58,1111122 
SCCF RECON,ioos:station:SCCF:11:1,2012-10-07T20:00:00Z,26.4679,-82.0631,7.29,1111122 
SCCF RECON,ioos:station:SCCF:11:1,2012-10-07T21:00:00Z,26.4679,-82.0631,6.55,1111122 
SCCF RECON,ioos:station:SCCF:11:1,2012-10-07T22:00:00Z,26.4679,-82.0631,7.87,1111122 
SCCF RECON,ioos:station:SCCF:11:1,2012-10-07T23:00:00Z,26.4679,-82.0631,7.79,1111122 
SCCF RECON,ioos:station:SCCF:11:1,2012-10-08T00:00:00Z,26.4679,-82.0631,7.79,1111122 
SCCF RECON,ioos:station:SCCF:11:1,2012-10-08T01:00:00Z,26.4679,-82.0631,7.59,1111122 
SCCF RECON,ioos:station:SCCF:11:1,2012-10-08T02:00:00Z,26.4679,-82.0631,6.84,1111122 
SCCF RECON,ioos:station:SCCF:11:1,2012-10-08T03:00:00Z,26.4679,-82.0631,5.68,1111122 
SCCF RECON,ioos:station:SCCF:11:1,2012-10-08T04:00:00Z,26.4679,-82.0631,5.04,1111122 
SCCF RECON,ioos:station:SCCF:11:1,2012-10-08T05:00:00Z,26.4679,-82.0631,4.14,1111122 
SCCF RECON,ioos:station:SCCF:11:1,2012-10-08T06:00:00Z,26.4679,-82.0631,5.25,1111122 
SCCF RECON,ioos:station:SCCF:11:1,2012-10-08T07:00:00Z,26.4679,-82.0631,4.79,1111122 
SCCF RECON,ioos:station:SCCF:11:1,2012-10-08T08:00:00Z,26.4679,-82.0631,4.24,1111122 
SCCF RECON,ioos:station:SCCF:11:1,2012-10-08T09:00:00Z,26.4679,-82.0631,3.13,1111122 
SCCF RECON,ioos:station:SCCF:11:1,2012-10-08T10:00:00Z,26.4679,-82.0631,2.97,1111122 
SCCF RECON,ioos:station:SCCF:11:1,2012-10-08T11:00:00Z,26.4679,-82.0631,3.55,1111122 
SCCF RECON,ioos:station:SCCF:11:1,2012-10-08T12:00:00Z,26.4679,-82.0631,3.93,1111122 
SCCF RECON,ioos:station:SCCF:11:1,2012-10-08T13:00:00Z,26.4679,-82.0631,5.05,1111122 
SCCF RECON,ioos:station:SCCF:11:1,2012-10-08T14:00:00Z,26.4679,-82.0631,5.17,1111122 
SCCF RECON,ioos:station:SCCF:11:1,2012-10-08T15:00:00Z,26.4679,-82.0631,8.26,1111122 
SCCF RECON,ioos:station:SCCF:11:1,2012-10-08T16:00:00Z,26.4679,-82.0631,9.23,1111122 
SCCF RECON,ioos:station:SCCF:11:1,2012-10-08T17:00:00Z,26.4679,-82.0631,6.39,1111122 
SCCF RECON,ioos:station:SCCF:11:1,2012-10-08T18:00:00Z,26.4679,-82.0631,6.6,1111122 
SCCF RECON,ioos:station:SCCF:11:1,2012-10-08T19:00:00Z,26.4679,-82.0631,7.55,1111122 
SCCF RECON,ioos:station:SCCF:11:1,2012-10-08T20:00:00Z,26.4679,-82.0631,6.15,1111122 
SCCF RECON,ioos:station:SCCF:11:1,2012-10-08T21:00:00Z,26.4679,-82.0631,7.85,1111122 
SCCF RECON,ioos:station:SCCF:11:1,2012-10-08T22:00:00Z,26.4679,-82.0631,6.43,1111122 
SCCF RECON,ioos:station:SCCF:11:1,2012-10-08T23:00:00Z,26.4679,-82.0631,7.83,1111122 
SCCF RECON,ioos:station:SCCF:11:1,2012-10-09T00:00:00Z,26.4679,-82.0631,4.88,1111122 
SCCF RECON,ioos:station:SCCF:11:1,2012-10-09T01:00:00Z,26.4679,-82.0631,5.7,1111122 
SCCF RECON,ioos:station:SCCF:11:1,2012-10-09T02:00:00Z,26.4679,-82.0631,4.36,1111122 
SCCF RECON,ioos:station:SCCF:11:1,2012-10-09T03:00:00Z,26.4679,-82.0631,4.22,1111122 
SCCF RECON,ioos:station:SCCF:11:1,2012-10-09T04:00:00Z,26.4679,-82.0631,4.71,1111122 
SCCF RECON,ioos:station:SCCF:11:1,2012-10-09T05:00:00Z,26.4679,-82.0631,5.09,1111122 
SCCF RECON,ioos:station:SCCF:11:1,2012-10-09T06:00:00Z,26.4679,-82.0631,6.06,1111122 
SCCF RECON,ioos:station:SCCF:11:1,2012-10-09T07:00:00Z,26.4679,-82.0631,5.67,1111122 
SCCF RECON,ioos:station:SCCF:11:1,2012-10-09T08:00:00Z,26.4679,-82.0631,5.5,1111122 
SCCF RECON,ioos:station:SCCF:11:1,2012-10-09T09:00:00Z,26.4679,-82.0631,4.93,1111122 
SCCF RECON,ioos:station:SCCF:11:1,2012-10-09T10:00:00Z,26.4679,-82.0631,4.47,1111122 
SCCF RECON,ioos:station:SCCF:11:1,2012-10-09T11:00:00Z,26.4679,-82.0631,5.46,1111122 
SCCF RECON,ioos:station:SCCF:11:1,2012-10-09T12:00:00Z,26.4679,-82.0631,5.98,1111122 
SCCF RECON,ioos:station:SCCF:11:1,2012-10-09T13:00:00Z,26.4679,-82.0631,4.55,1111122 
SCCF RECON,ioos:station:SCCF:11:1,2012-10-09T14:00:00Z,26.4679,-82.0631,4.31,1111122 
SCCF RECON,ioos:station:SCCF:11:1,2012-10-09T15:00:00Z,26.4679,-82.0631,6.08,1111122 
SCCF RECON,ioos:station:SCCF:11:1,2012-10-09T16:00:00Z,26.4679,-82.0631,7.51,1111122 
SCCF RECON,ioos:station:SCCF:11:1,2012-10-09T17:00:00Z,26.4679,-82.0631,10.55,1111122 
SCCF RECON,ioos:station:SCCF:11:1,2012-10-09T18:00:00Z,26.4679,-82.0631,9.59,1111122 
SCCF RECON,ioos:station:SCCF:11:1,2012-10-09T19:00:00Z,26.4679,-82.0631,10.66,1111122 
SCCF RECON,ioos:station:SCCF:11:1,2012-10-09T20:00:00Z,26.4679,-82.0631,9.1,1111122 
SCCF RECON,ioos:station:SCCF:11:1,2012-10-09T21:00:00Z,26.4679,-82.0631,9.75,1111122 
SCCF RECON,ioos:station:SCCF:11:1,2012-10-09T22:00:00Z,26.4679,-82.0631,11.0,1111122 
SCCF RECON,ioos:station:SCCF:11:1,2012-10-09T23:00:00Z,26.4679,-82.0631,10.23,1111122 
SCCF RECON,ioos:station:SCCF:11:1,2012-10-10T00:00:00Z,26.4679,-82.0631,8.03,1111122 
SCCF RECON,ioos:station:SCCF:11:1,2012-10-10T01:00:00Z,26.4679,-82.0631,8.9,1111122 
SCCF RECON,ioos:station:SCCF:11:1,2012-10-10T02:00:00Z,26.4679,-82.0631,9.83,1111122 
SCCF RECON,ioos:station:SCCF:11:1,2012-10-10T03:00:00Z,26.4679,-82.0631,8.75,1111122 
SCCF RECON,ioos:station:SCCF:11:1,2012-10-10T04:00:00Z,26.4679,-82.0631,9.4,1111122 
SCCF RECON,ioos:station:SCCF:11:1,2012-10-10T05:00:00Z,26.4679,-82.0631,6.93,1111122 
SCCF RECON,ioos:station:SCCF:11:1,2012-10-10T06:00:00Z,26.4679,-82.0631,8.26,1111122 
SCCF RECON,ioos:station:SCCF:11:1,2012-10-10T07:00:00Z,26.4679,-82.0631,7.84,1111122 
SCCF RECON,ioos:station:SCCF:11:1,2012-10-10T08:00:00Z,26.4679,-82.0631,7.78,1111122 
SCCF RECON,ioos:station:SCCF:11:1,2012-10-10T09:00:00Z,26.4679,-82.0631,7.34,1111122 
SCCF RECON,ioos:station:SCCF:11:1,2012-10-10T10:00:00Z,26.4679,-82.0631,4.31,1111122 
SCCF RECON,ioos:station:SCCF:11:1,2012-10-10T11:00:00Z,26.4679,-82.0631,5.81,1111122 
SCCF RECON,ioos:station:SCCF:11:1,2012-10-10T12:00:00Z,26.4679,-82.0631,5.47,1111122 
SCCF RECON,ioos:station:SCCF:11:1,2012-10-10T13:00:00Z,26.4679,-82.0631,4.24,1111122 
SCCF RECON,ioos:station:SCCF:11:1,2012-10-10T14:00:00Z,26.4679,-82.0631,4.05,1111122 
SCCF RECON,ioos:station:SCCF:11:1,2012-10-10T15:00:00Z,26.4679,-82.0631,5.64,1111122 
SCCF RECON,ioos:station:SCCF:11:1,2012-10-10T16:00:00Z,26.4679,-82.0631,6.01,1111122 
SCCF RECON,ioos:station:SCCF:11:1,2012-10-10T17:00:00Z,26.4679,-82.0631,6.8,1111122 
SCCF RECON,ioos:station:SCCF:11:1,2012-10-10T18:00:00Z,26.4679,-82.0631,6.65,1111122 
SCCF RECON,ioos:station:SCCF:11:1,2012-10-10T19:00:00Z,26.4679,-82.0631,7.56,1111122 
SCCF RECON,ioos:station:SCCF:11:1,2012-10-10T20:00:00Z,26.4679,-82.0631,11.64,1111122 
SCCF RECON,ioos:station:SCCF:11:1,2012-10-10T21:00:00Z,26.4679,-82.0631,11.03,1111122 
SCCF RECON,ioos:station:SCCF:11:1,2012-10-10T22:00:00Z,26.4679,-82.0631,11.59,1111122 
SCCF RECON,ioos:station:SCCF:11:1,2012-10-10T23:00:00Z,26.4679,-82.0631,9.83,1111122 
SCCF RECON,ioos:station:SCCF:11:1,2012-10-11T00:00:00Z,26.4679,-82.0631,8.39,1111122 
SCCF RECON,ioos:station:SCCF:11:1,2012-10-11T01:00:00Z,26.4679,-82.0631,8.44,1111122 
SCCF RECON,ioos:station:SCCF:11:1,2012-10-11T02:00:00Z,26.4679,-82.0631,7.88,1111122 
SCCF RECON,ioos:station:SCCF:11:1,2012-10-11T03:00:00Z,26.4679,-82.0631,7.88,1111122 
SCCF RECON,ioos:station:SCCF:11:1,2012-10-11T04:00:00Z,26.4679,-82.0631,7.27,1111122 
SCCF RECON,ioos:station:SCCF:11:1,2012-10-11T05:00:00Z,26.4679,-82.0631,7.47,1111122 
SCCF RECON,ioos:station:SCCF:11:1,2012-10-11T06:00:00Z,26.4679,-82.0631,6.94,1111122 
SCCF RECON,ioos:station:SCCF:11:1,2012-10-11T07:00:00Z,26.4679,-82.0631,7.16,1111122 
SCCF RECON,ioos:station:SCCF:11:1,2012-10-11T08:00:00Z,26.4679,-82.0631,6.67,1111122 
SCCF RECON,ioos:station:SCCF:11:1,2012-10-11T09:00:00Z,26.4679,-82.0631,6.7,1111122 
SCCF RECON,ioos:station:SCCF:11:1,2012-10-11T10:00:00Z,26.4679,-82.0631,6.64,1111122 
SCCF RECON,ioos:station:SCCF:11:1,2012-10-11T11:00:00Z,26.4679,-82.0631,6.08,1111122 
SCCF RECON,ioos:station:SCCF:11:1,2012-10-11T12:00:00Z,26.4679,-82.0631,5.91,1111122 
SCCF RECON,ioos:station:SCCF:11:1,2012-10-11T13:00:00Z,26.4679,-82.0631,6.08,1111122 
SCCF RECON,ioos:station:SCCF:11:1,2012-10-11T16:00:00Z,26.4679,-82.0631,5.51,1111122 
SCCF RECON,ioos:station:SCCF:11:1,2012-10-11T17:00:00Z,26.4679,-82.0631,6.52,1111122 
SCCF RECON,ioos:station:SCCF:11:1,2012-10-11T18:00:00Z,26.4679,-82.0631,6.72,1111122 
SCCF RECON,ioos:station:SCCF:11:1,2012-10-11T19:00:00Z,26.4679,-82.0631,7.63,1111122 
SCCF RECON,ioos:station:SCCF:11:1,2012-10-11T20:00:00Z,26.4679,-82.0631,9.37,1111122 
SCCF RECON,ioos:station:SCCF:11:1,2012-10-11T21:00:00Z,26.4679,-82.0631,11.6,1111122 
SCCF RECON,ioos:station:SCCF:11:1,2012-10-11T22:00:00Z,26.4679,-82.0631,11.36,1111122 
SCCF RECON,ioos:station:SCCF:11:1,2012-10-11T23:00:00Z,26.4679,-82.0631,9.2,1111122 
SCCF RECON,ioos:station:SCCF:11:1,2012-10-12T00:00:00Z,26.4679,-82.0631,9.03,1111122 
SCCF RECON,ioos:station:SCCF:11:1,2012-10-12T01:00:00Z,26.4679,-82.0631,8.18,1111122 
SCCF RECON,ioos:station:SCCF:11:1,2012-10-12T02:00:00Z,26.4679,-82.0631,6.12,1111122 
SCCF RECON,ioos:station:SCCF:11:1,2012-10-12T03:00:00Z,26.4679,-82.0631,5.95,1111122 
SCCF RECON,ioos:station:SCCF:11:1,2012-10-12T04:00:00Z,26.4679,-82.0631,6.32,1111122 
SCCF RECON,ioos:station:SCCF:11:1,2012-10-12T05:00:00Z,26.4679,-82.0631,7.36,1111122 
SCCF RECON,ioos:station:SCCF:11:1,2012-10-12T06:00:00Z,26.4679,-82.0631,7.45,1111122 
SCCF RECON,ioos:station:SCCF:11:1,2012-10-12T07:00:00Z,26.4679,-82.0631,7.61,1111122 
SCCF RECON,ioos:station:SCCF:11:1,2012-10-12T08:00:00Z,26.4679,-82.0631,7.39,1111122 
SCCF RECON,ioos:station:SCCF:11:1,2012-10-12T09:00:00Z,26.4679,-82.0631,7.35,1111122 
SCCF RECON,ioos:station:SCCF:11:1,2012-10-12T10:00:00Z,26.4679,-82.0631,7.13,1111122 
SCCF RECON,ioos:station:SCCF:11:1,2012-10-12T11:00:00Z,26.4679,-82.0631,6.43,1111122 
SCCF RECON,ioos:station:SCCF:11:1,2012-10-12T12:00:00Z,26.4679,-82.0631,6.39,1111122 
SCCF RECON,ioos:station:SCCF:11:1,2012-10-12T13:00:00Z,26.4679,-82.0631,6.13,1111122 
SCCF RECON,ioos:station:SCCF:11:1,2012-10-12T14:00:00Z,26.4679,-82.0631,5.52,1111122 
SCCF RECON,ioos:station:SCCF:11:1,2012-10-12T15:00:00Z,26.4679,-82.0631,5.78,1111122 